This is the latest recevied weather packets stored in our database for station/object N8SDR. If no packets are shown the sender has not sent any weather packets the latest 10 day(s).
| Time | Temp. | Humidity | Pressure | Rain* | Wind** | Luminosity | Snow |
|---|---|---|---|---|---|---|---|
| 1778192910 | 16.11° C | 45% | 1010.2 hPa | 0 mm | - | 227 W/m² | - |
| 1778192606 | 16.11° C | 43% | 1010.2 hPa | 0 mm | - | 232 W/m² | - |
| 1778192303 | 16.11° C | 42% | 1010.1 hPa | 0 mm | - | 256 W/m² | - |
| 1778192000 | 16.67° C | 42% | 1010.4 hPa | 0 mm | - | 287 W/m² | - |
| 1778191696 | 16.11° C | 43% | 1010.5 hPa | 0 mm | - | 302 W/m² | - |
| 1778191395 | 16.67° C | 42% | 1010.4 hPa | 0 mm | - | 321 W/m² | - |
| 1778191090 | 16.67° C | 42% | 1010.5 hPa | 0 mm | - | 278 W/m² | - |
| 1778190788 | 16.11° C | 41% | 1010.3 hPa | 0 mm | - | 119 W/m² | - |
| 1778190485 | 16.11° C | 44% | 1010.3 hPa | 0 mm | - | 296 W/m² | - |
| 1778190182 | 16.11° C | 44% | 1010.5 hPa | 0 mm | - | 157 W/m² | - |
| 1778189876 | 16.11° C | 43% | 1010.5 hPa | 0 mm | - | 115 W/m² | - |
| 1778189574 | 16.11° C | 42% | 1010.6 hPa | 0 mm | - | 281 W/m² | - |
| 1778189271 | 15.56° C | 43% | 1010.6 hPa | 0 mm | - | 457 W/m² | - |
| 1778188967 | 16.11° C | 43% | 1010.6 hPa | 0 mm | - | 358 W/m² | - |
| 1778188663 | 15.56° C | 42% | 1010.5 hPa | 0 mm | - | 430 W/m² | - |
| 1778188360 | 15° C | 45% | 1010.7 hPa | 0 mm | - | 118 W/m² | - |
| 1778188057 | 15.56° C | 43% | 1010.6 hPa | 0 mm | - | 82 W/m² | - |
| 1778187754 | 16.11° C | 43% | 1010.8 hPa | 0 mm | - | 507 W/m² | - |
| 1778187450 | 16.11° C | 41% | 1010.7 hPa | 0 mm | - | 547 W/m² | - |
| 1778187147 | 16.11° C | 42% | 1010.6 hPa | 0 mm | - | 534 W/m² | - |
| 1778186843 | 16.67° C | 43% | 1010.4 hPa | 0 mm | - | 580 W/m² | - |
| 1778186542 | 16.11° C | 44% | 1010.3 hPa | 0 mm | - | 584 W/m² | - |
| 1778186239 | 16.67° C | 44% | 1010.4 hPa | 0 mm | - | 609 W/m² | - |
| 1778185936 | 16.11° C | 44% | 1010.4 hPa | 0 mm | - | 670 W/m² | - |
| 1778185632 | 15.56° C | 44% | 1010.4 hPa | 0 mm | - | 679 W/m² | - |
* Rain latest hour (hover to see other rain measurements)
** Current wind speed in m/s (hover to see current wind gust speed)